Regional Weather Roundup
Issued by NWS

Home | Current Version | Previous Version | Graphics & Text | Print | Product List | Glossary On
Versions: 1 2 3 4 5 6 7 8 9 10 11 12 13 14 15 16 17 18 19 20 21 22 23 24 25 26 27 28 29 30 31 32 33 34 35 36 37 38 39 40 41 42 43 44 45 46 47 48 49 50
000
ASUS43 KIND 310309
RWRIN

WEATHER ROUNDUP FOR INDIANA
NATIONAL WEATHER SERVICE INDIANAPOLIS IN
1100 PM EDT WED JUL 30 2014

NOTE: "FAIR" INDICATES FEW OR NO CLOUDS BELOW 12,000 FEET WITH NO
SIGNIFICANT WEATHER AND/OR OBSTRUCTIONS TO VISIBILITY.

* - STATION DOES NOT REPORT WEATHER SUCH AS PRECIPITATION OR FOG.

+ - STATION NOT QUALITY CONTROLLED BY THE NATIONAL WEATHER SERVICE.
    USE DATA WITH CAUTION...ESPECIALLY DEWPOINT AND RELATIVE
    HUMIDITY OBSERVATIONS.

INZ001>003-010>013-019-020-310400-
NORTHWEST INDIANA

CITY           SKY/WX    TMP DP  RH WIND       PRES   REMARKS
GARY /AIRPORT/ CLEAR     61  59  92 CALM      30.05R FOG
KNOX *+        PTCLDY    58  55  90 CALM      30.04R
LA PORTE +     CLEAR     58  56  94 CALM      30.05S
MICHIGAN CITY+ CLEAR     57  57 100 CALM      30.05R FOG
MONTICELLO +   CLEAR     62  60  92 NW5       30.03R
RENSSELAER +   CLEAR     63  61  94 N3        30.05R
VALPARAISO     CLEAR     60  57  89 CALM      30.05R

$$

LMZ046-743>745-310400-
SOUTHERN LAKE MICHIGAN

STATION/POSITION TIME  TEMP WIND        PRES
                       AIR  DIR/SP/G
                 (UTC) (F)  (DEG/KT/KT) (MB)
MICHIGAN CITY    0300   63   90/  3/  4   N/A

$$

INZ004-005-014>016-021>024-310400-
NORTH CENTRAL INDIANA

CITY           SKY/WX    TMP DP  RH WIND       PRES   REMARKS
GOSHEN         CLEAR     61  56  83 CALM      30.04R
LOGANSPORT +   PTCLDY    63  59  88 CALM      30.05R
PERU/GRISSOM   PTCLDY    66  64  94 W2        30.04R
ROCHESTER +    PTCLDY    63  63 100 CALM      30.05S FOG
SOUTH BEND     CLEAR     63  56  78 CALM      30.05R
WARSAW +       PTCLDY    63  57  82 CALM      30.04S

$$

INZ006>009-017-018-025>027-310400-
NORTHEAST INDIANA

CITY           SKY/WX    TMP DP  RH WIND       PRES   REMARKS
ANGOLA *+      CLEAR     63  57  82 CALM      30.04R
AUBURN +       PTCLDY    63  55  77 CALM      30.04S
FORT WAYNE     PTCLDY    65  60  84 CALM      30.04R
HUNTINGTON +   MOCLDY    62  62  97 CALM      30.03S

$$

INZ028-029-035-036-043>045-051>053-310400-
WEST CENTRAL INDIANA

CITY           SKY/WX    TMP DP  RH WIND       PRES   REMARKS
GREENCASTLE +  CLEAR     63  59  88 S5        30.07R
LAFAYETTE      CLEAR     64  61  90 W3        30.04R
TERRE HAUTE    CLEAR     62  58  86 CALM      30.06R

$$

INZ030>032-037>040-046>048-054>057-064-065-310400-
CENTRAL INDIANA

CITY           SKY/WX    TMP DP  RH WIND       PRES   REMARKS
CP ATTERBURY + CLOUDY    66  61  82 CALM      30.07R
INDIANAPOLIS   MOCLDY    65  62  90 SW7       30.05R
-EAGLE CREEK   MOCLDY    66  62  87 CALM      30.05R
KOKOMO *+      CLEAR     64  59  82 CALM      30.04S
MARION +       CLEAR     61  58  92 CALM      30.04F
MT COMFORT *+  PTCLDY    63 N/A N/A SW3       30.06S
SHELBYVILLE    PTCLDY    66  60  81 SW5       30.05S
ZIONSVILLE +   CLEAR     64  60  85 S3        30.06S

$$

INZ033-034-041-042-049-050-058-059-310400-
EAST CENTRAL INDIANA

CITY           SKY/WX    TMP DP  RH WIND       PRES   REMARKS
MUNCIE         PTCLDY    67  60  78 SW7       30.05R

$$

INZ060-061-067>069-081>083-085>088-310400-
SOUTHWEST INDIANA

CITY           SKY/WX    TMP DP  RH WIND       PRES   REMARKS
EVANSVILLE     PTCLDY    72  60  66 CALM      30.08R
WASHINGTON +   PTCLDY    65  61  88 SW7       30.06R

$$

INZ062-063-066-070>080-084-089>092-310400-
SOUTH CENTRAL AND SOUTHEAST INDIANA

CITY           SKY/WX    TMP DP  RH WIND       PRES   REMARKS
BLOOMINGTON    CLEAR     63  60  90 CALM      30.07R

$$



USA.gov is the U.S. government's official web portal to all federal, state and local government web resources and services.